Zurück zum Katalog

STARLINK-4356

AktivKommunikationSSO
NORAD 53224·PAYLOAD·🇺🇸 United States

Gestartet Jul 22, 2022 von Vandenberg Space Force Base

Loading…

Nächste Überflüge (nächste 24 Stunden)

TLE

AktuellSource: CelesTrak SupGP

Epoche: Sep 14, 2026, 20:54 UTC

1 53224C 22084AM  26257.87131944 -.00040416  00000+0 -12547-2 0  2575
2 53224  97.2838 312.7328 0001055  93.7704  87.2749 15.33456885    18

Verfolge STARLINK-4356 in Echtzeit mit AllMySat

Download on the App Store